,,,PA_Meas_PMT16A,,PR_Meas_QMR101_102,,RH_Meas_QMH101,,SR_Meas_QMS101,,TA_Meas_QMH101,,GenWind,,GenWind,
date,time,status,PA,status,PR,status,RH,status,SR,status,TA,status,DirAvg,status,SpdAvg,
2010-03-14, 00:00:04,VALID,1006.12,VALID,0,VALID,84.94,VALID,0,VALID,25.8064,VALID,288,VALID,2.26719,
2010-03-14, 00:01:04,VALID,1006.06,VALID,0,VALID,85.123,VALID,0,VALID,25.7869,VALID,204,VALID,1.1418,
2010-03-14, 00:02:04,VALID,1006.02,VALID,0,VALID,85.0773,VALID,0,VALID,25.7869,VALID,294,VALID,2.18164,
2010-03-14, 00:03:04,VALID,1006,VALID,0,VALID,85.1993,VALID,0,VALID,25.7869,VALID,285,VALID,1.36484,
2010-03-14, 00:04:04,VALID,1005.95,VALID,0,VALID,85.2527,VALID,0,VALID,25.7889,VALID,295,VALID,1.00156,
2010-03-14, 00:05:04,VALID,1005.95,VALID,0,VALID,85.3748,VALID,0,VALID,25.748,VALID,292,VALID,1.57891,
2010-03-14, 00:06:04,VALID,1005.86,VALID,0,VALID,85.5198,VALID,0,VALID,25.748,VALID,353,VALID,1.38555,
2010-03-14, 00:07:04,VALID,1005.86,VALID,0,VALID,85.6266,VALID,0,VALID,25.748,VALID,273,VALID,1.4793,
2010-03-14, 00:08:04,VALID,1005.86,VALID,0,VALID,85.6266,VALID,0,VALID,25.748,VALID,288,VALID,1.63789,
2010-03-14, 00:09:04,VALID,1005.87,VALID,0,VALID,85.6571,VALID,0,VALID,25.7285,VALID,297,VALID,1.8832,
2010-03-14, 00:10:04,VALID,1005.82,VALID,0,VALID,85.596,VALID,0,VALID,25.748,VALID,292,VALID,1.99375,
2010-03-14, 00:11:04,VALID,1005.82,VALID,0,VALID,85.5732,VALID,0,VALID,25.748,VALID,287,VALID,2.41484,
2010-03-14, 00:12:04,VALID,1005.78,VALID,0,VALID,85.6571,VALID,0,VALID,25.748,VALID,297,VALID,1.63945,
2010-03-14, 00:13:04,VALID,1005.8,VALID,0,VALID,85.7486,VALID,0,VALID,25.709,VALID,309,VALID,1.08633,
2010-03-14, 00:14:04,VALID,1005.79,VALID,0,VALID,85.8478,VALID,0,VALID,25.7285,VALID,305,VALID,1.22383,
2010-03-14, 00:15:04,VALID,1005.74,VALID,0,VALID,85.9622,VALID,0,VALID,25.7285,VALID,297,VALID,0.839063,
2010-03-14, 00:16:04,VALID,1005.72,VALID,0,VALID,85.9241,VALID,0,VALID,25.7265,VALID,294,VALID,1.51055,
2010-03-14, 00:17:04,VALID,1005.64,VALID,0,VALID,85.9317,VALID,0,VALID,25.7694,VALID,319,VALID,0.939062,
2010-03-14, 00:18:04,VALID,1005.62,VALID,0,VALID,85.9699,VALID,0,VALID,25.748,VALID,286,VALID,1.46211,
2010-03-14, 00:19:04,VALID,1005.57,VALID,0,VALID,85.9012,VALID,0,VALID,25.7674,VALID,299,VALID,2.13086,
2010-03-14, 00:20:04,VALID,1005.53,VALID,0,VALID,85.8554,VALID,0,VALID,25.746,VALID,278,VALID,0.757422,
2010-03-14, 00:21:04,VALID,1005.52,VALID,0,VALID,85.8783,VALID,0,VALID,25.7869,VALID,295,VALID,2.06602,
2010-03-14, 00:22:04,VALID,1005.51,VALID,0,VALID,85.8478,VALID,0,VALID,25.7869,VALID,254,VALID,0.555469,
2010-03-14, 00:23:04,VALID,1005.49,VALID,0,VALID,85.8402,VALID,0,VALID,25.7869,VALID,300,VALID,1.43867,
2010-03-14, 00:24:04,VALID,1005.44,VALID,0,VALID,85.8783,VALID,0,VALID,25.7869,VALID,294,VALID,1.46016,
2010-03-14, 00:25:04,VALID,1005.44,VALID,0,VALID,85.9088,VALID,0,VALID,25.8064,VALID,306,VALID,0.980859,
2010-03-14, 00:26:04,VALID,1005.41,VALID,0,VALID,85.9012,VALID,0,VALID,25.8064,VALID,280,VALID,0.796484,
2010-03-14, 00:27:04,VALID,1005.42,VALID,0,VALID,85.8554,VALID,0,VALID,25.8064,VALID,290,VALID,1.77852,
2010-03-14, 00:28:04,VALID,1005.35,VALID,0,VALID,85.8936,VALID,0,VALID,25.8064,VALID,294,VALID,1.07227,
2010-03-14, 00:29:04,VALID,1005.29,VALID,0,VALID,85.9546,VALID,0,VALID,25.8259,VALID,260,VALID,0.664063,
2010-03-14, 00:30:04,VALID,1005.29,VALID,0,VALID,86.0385,VALID,0,VALID,25.8259,VALID,306,VALID,0.726563,
2010-03-14, 00:31:04,VALID,1005.26,VALID,0,VALID,85.9927,VALID,0,VALID,25.8064,VALID,332,VALID,0.354297,
2010-03-14, 00:32:04,VALID,1005.23,VALID,0,VALID,85.9317,VALID,0,VALID,25.8044,VALID,340,VALID,1.09961,
2010-03-14, 00:33:04,VALID,1005.22,VALID,0,VALID,86.0461,VALID,0,VALID,25.8044,VALID,299,VALID,0.809766,
2010-03-14, 00:34:04,VALID,1005.24,VALID,0,VALID,86.1224,VALID,0,VALID,25.8044,VALID,350,VALID,0.826563,
2010-03-14, 00:35:04,VALID,1005.21,VALID,0,VALID,86.0233,VALID,0,VALID,25.8064,VALID,298,VALID,1.2625,
2010-03-14, 00:36:04,VALID,1005.22,VALID,0,VALID,86.0385,VALID,0,VALID,25.8064,VALID,324,VALID,1.30234,
2010-03-14, 00:37:04,VALID,1005.24,VALID,0,VALID,86.0767,VALID,0,VALID,25.8259,VALID,281,VALID,0.191016,
2010-03-14, 00:38:04,VALID,1005.2,VALID,0,VALID,86.0843,VALID,0,VALID,25.8044,VALID,290,VALID,0.759766,
2010-03-14, 00:39:04,VALID,1005.2,VALID,0,VALID,86.008,VALID,0,VALID,25.8044,VALID,319,VALID,1.17656,
2010-03-14, 00:40:04,VALID,1005.16,VALID,0,VALID,86.1453,VALID,0,VALID,25.8064,VALID,348,VALID,1.12266,
2010-03-14, 00:41:04,VALID,1005.13,VALID,0,VALID,86.2369,VALID,0,VALID,25.785,VALID,329,VALID,0.743359,
2010-03-14, 00:42:04,VALID,1005.14,VALID,0,VALID,86.1911,VALID,0,VALID,25.8064,VALID,358,VALID,0.516797,
2010-03-14, 00:43:04,VALID,1005.13,VALID,0,VALID,86.2674,VALID,0,VALID,25.7869,VALID,315,VALID,0.345313,
2010-03-14, 00:44:04,VALID,1005.13,VALID,0,VALID,86.2064,VALID,0,VALID,25.7869,VALID,289,VALID,1.6375,
2010-03-14, 00:45:04,VALID,1005.11,VALID,0,VALID,86.1987,VALID,0,VALID,25.7869,VALID,303,VALID,0.623438,
2010-03-14, 00:46:04,VALID,1005.07,VALID,0,VALID,86.214,VALID,0,VALID,25.7869,VALID,324,VALID,0.868359,
2010-03-14, 00:47:04,VALID,1005.05,VALID,0,VALID,86.275,VALID,0,VALID,25.8064,VALID,6,VALID,0.721484,
2010-03-14, 00:48:04,VALID,1005.02,VALID,0,VALID,86.1758,VALID,0,VALID,25.8064,VALID,306,VALID,1.03398,
2010-03-14, 00:49:04,VALID,1005.05,VALID,0,VALID,86.2598,VALID,0,VALID,25.7869,VALID,333,VALID,0.982031,
2010-03-14, 00:50:04,VALID,1005.05,VALID,0,VALID,86.2598,VALID,0,VALID,25.8064,VALID,261,VALID,0.610937,
2010-03-14, 00:51:04,VALID,1005,VALID,0,VALID,86.2598,VALID,0,VALID,25.7869,VALID,305,VALID,1.25937,
2010-03-14, 00:52:04,VALID,1005,VALID,0,VALID,86.3132,VALID,0,VALID,25.7869,VALID,334,VALID,0.892187,
2010-03-14, 00:53:04,VALID,1004.97,VALID,0,VALID,86.2598,VALID,0,VALID,25.7674,VALID,326,VALID,0.831641,
2010-03-14, 00:54:04,VALID,1004.97,VALID,0,VALID,86.2903,VALID,0,VALID,25.7655,VALID,277,VALID,1.21289,
2010-03-14, 00:55:04,VALID,1004.96,VALID,0,VALID,86.3589,VALID,0,VALID,25.7674,VALID,297,VALID,1.35547,
2010-03-14, 00:56:04,VALID,1004.9,VALID,0,VALID,86.3894,VALID,0,VALID,25.7674,VALID,287,VALID,0.569141,
2010-03-14, 00:57:04,VALID,1004.91,VALID,0,VALID,86.481,VALID,0,VALID,25.748,VALID,324,VALID,0.735156,
2010-03-14, 00:58:04,VALID,1004.88,VALID,0,VALID,86.5878,VALID,0,VALID,25.748,VALID,330,VALID,0.691797,
2010-03-14, 00:59:04,VALID,1004.86,VALID,0,VALID,86.6412,VALID,0,VALID,25.748,VALID,9,VALID,1.01055,
2010-03-14, 01:00:04,VALID,1004.87,VALID,0,VALID,86.5954,VALID,0,VALID,25.748,VALID,323,VALID,1.49414,
2010-03-14, 01:01:04,VALID,1004.86,VALID,0,VALID,86.6336,VALID,0,VALID,25.7674,VALID,273,VALID,0.28125,
2010-03-14, 01:02:04,VALID,1004.85,VALID,0,VALID,86.5344,VALID,0,VALID,25.8083,VALID,312,VALID,1.12422,
2010-03-14, 01:03:04,VALID,1004.84,VALID,0,VALID,86.4886,VALID,0,VALID,25.8064,VALID,277,VALID,1.63984,
2010-03-14, 01:04:04,VALID,1004.82,VALID,0,VALID,86.3132,VALID,0,VALID,25.8259,VALID,290,VALID,1.23398,
2010-03-14, 01:05:04,VALID,1004.78,VALID,0,VALID,86.2369,VALID,0,VALID,25.8434,VALID,33,VALID,0.437891,
2010-03-14, 01:06:04,VALID,1004.71,VALID,0,VALID,86.1758,VALID,0,VALID,25.8648,VALID,284,VALID,1.6625,
2010-03-14, 01:07:04,VALID,1004.74,VALID,0,VALID,85.9546,VALID,0,VALID,25.9038,VALID,330,VALID,1.00391,
2010-03-14, 01:08:04,VALID,1004.7,VALID,0,VALID,85.8478,VALID,0,VALID,25.9232,VALID,339,VALID,1.51563,
2010-03-14, 01:09:04,VALID,1004.67,VALID,0,VALID,85.7639,VALID,0,VALID,25.9427,VALID,270,VALID,0.424609,
2010-03-14, 01:10:04,VALID,1004.65,VALID,0,VALID,85.5732,VALID,0,VALID,25.9622,VALID,308,VALID,2.27422,
2010-03-14, 01:11:04,VALID,1004.6,VALID,0,VALID,85.5732,VALID,0,VALID,25.9817,VALID,286,VALID,1.78672,
2010-03-14, 01:12:04,VALID,1004.59,VALID,0,VALID,85.6113,VALID,0,VALID,25.9817,VALID,341,VALID,2.00391,
2010-03-14, 01:13:04,VALID,1004.56,VALID,0,VALID,85.3214,VALID,0,VALID,26.0012,VALID,324,VALID,1.48789,
2010-03-14, 01:14:04,VALID,1004.57,VALID,0,VALID,85.2299,VALID,0,VALID,26.0596,VALID,288,VALID,1.32852,
2010-03-14, 01:15:04,VALID,1004.62,VALID,0,VALID,85.001,VALID,0,VALID,26.0791,VALID,292,VALID,2.34687,
2010-03-14, 01:16:04,VALID,1004.63,VALID,0,VALID,85.0544,VALID,0,VALID,26.0985,VALID,305,VALID,0.976563,
2010-03-14, 01:17:04,VALID,1004.65,VALID,0,VALID,84.7797,VALID,0,VALID,26.118,VALID,293,VALID,1.875,
2010-03-14, 01:18:04,VALID,1004.69,VALID,0,VALID,84.5967,VALID,0,VALID,26.157,VALID,290,VALID,1.85898,
2010-03-14, 01:19:04,VALID,1004.67,VALID,0,VALID,84.4746,VALID,0,VALID,26.1959,VALID,285,VALID,1.88281,
2010-03-14, 01:20:04,VALID,1004.68,VALID,0,VALID,84.2915,VALID,0,VALID,26.2564,VALID,280,VALID,1.36953,
2010-03-14, 01:21:04,VALID,1004.68,VALID,0,VALID,83.9863,VALID,0,VALID,26.2524,VALID,297,VALID,2.37539,
2010-03-14, 01:22:04,VALID,1004.62,VALID,0,VALID,83.8643,VALID,0,VALID,26.3128,VALID,302,VALID,1.29336,
2010-03-14, 01:23:04,VALID,1004.63,VALID,0,VALID,83.8567,VALID,0,VALID,26.3323,VALID,300,VALID,0.649219,
2010-03-14, 01:24:04,VALID,1004.56,VALID,0,VALID,83.6888,VALID,0,VALID,26.3518,VALID,291,VALID,2.14453,
2010-03-14, 01:25:04,VALID,1004.57,VALID,0,VALID,83.7651,VALID,0,VALID,26.3518,VALID,313,VALID,0.414453,
2010-03-14, 01:26:04,VALID,1004.49,VALID,0,VALID,83.6278,VALID,0,VALID,26.3518,VALID,291,VALID,2.12695,
2010-03-14, 01:27:04,VALID,1004.5,VALID,0,VALID,83.6125,VALID,0,VALID,26.3498,VALID,339,VALID,0.803516,
2010-03-14, 01:28:04,VALID,1004.53,VALID,0,VALID,83.727,VALID,0,VALID,26.3733,VALID,293,VALID,0.744531,
2010-03-14, 01:29:04,VALID,1004.54,VALID,0,VALID,83.6354,VALID,0,VALID,26.3713,VALID,297,VALID,1.07773,
2010-03-14, 01:30:04,VALID,1004.56,VALID,0,VALID,83.6049,VALID,0.100563,VALID,26.3673,VALID,300,VALID,1.62852,
2010-03-14, 01:31:04,VALID,1004.53,VALID,0,VALID,83.6659,VALID,0.100563,VALID,26.3867,VALID,253,VALID,1.93203,
2010-03-14, 01:32:04,VALID,1004.52,VALID,0,VALID,83.8414,VALID,0.100563,VALID,26.3887,VALID,255,VALID,0.626172,
2010-03-14, 01:33:04,VALID,1004.5,VALID,0,VALID,83.5896,VALID,0.100563,VALID,26.4082,VALID,289,VALID,2.39727,
2010-03-14, 01:34:04,VALID,1004.47,VALID,0,VALID,83.5515,VALID,0.100563,VALID,26.4297,VALID,304,VALID,1.10078,
2010-03-14, 01:35:04,VALID,1004.47,VALID,0,VALID,83.643,VALID,0.100563,VALID,26.4277,VALID,327,VALID,0.901563,
2010-03-14, 01:36:04,VALID,1004.44,VALID,0,VALID,83.8033,VALID,0.100563,VALID,26.4277,VALID,290,VALID,1.03945,
2010-03-14, 01:37:04,VALID,1004.43,VALID,0,VALID,83.8948,VALID,0.100563,VALID,26.4082,VALID,299,VALID,0.96875,
2010-03-14, 01:38:04,VALID,1004.41,VALID,0,VALID,83.8338,VALID,0.100563,VALID,26.3887,VALID,357,VALID,1.20547,
2010-03-14, 01:39:04,VALID,1004.42,VALID,0,VALID,83.7193,VALID,0.100563,VALID,26.3693,VALID,277,VALID,1.17344,
2010-03-14, 01:40:04,VALID,1004.42,VALID,0,VALID,83.7041,VALID,0.100563,VALID,26.3887,VALID,306,VALID,1.4082,
2010-03-14, 01:41:04,VALID,1004.42,VALID,0,VALID,83.7041,VALID,0.100563,VALID,26.3887,VALID,284,VALID,1.4582,
2010-03-14, 01:42:04,VALID,1004.42,VALID,0,VALID,83.6888,VALID,0.100563,VALID,26.3887,VALID,292,VALID,1.02461,
2010-03-14, 01:43:04,VALID,1004.44,VALID,0,VALID,83.6812,VALID,0.100563,VALID,26.3887,VALID,296,VALID,1.3125,
2010-03-14, 01:44:04,VALID,1004.43,VALID,0,VALID,83.8872,VALID,0.100563,VALID,26.3693,VALID,303,VALID,0.507813,
2010-03-14, 01:45:04,VALID,1004.45,VALID,0,VALID,83.9635,VALID,0,VALID,26.3713,VALID,312,VALID,0.559766,
2010-03-14, 01:46:04,VALID,1004.45,VALID,0,VALID,84.0931,VALID,0,VALID,26.3323,VALID,282,VALID,1.28828,
2010-03-14, 01:47:04,VALID,1004.46,VALID,0,VALID,83.9406,VALID,0,VALID,26.3518,VALID,296,VALID,1.38125,
2010-03-14, 01:48:04,VALID,1004.47,VALID,0,VALID,83.9635,VALID,0,VALID,26.3323,VALID,283,VALID,0.777344,
2010-03-14, 01:49:04,VALID,1004.49,VALID,0,VALID,84.1084,VALID,0,VALID,26.3323,VALID,297,VALID,0.207813,
2010-03-14, 01:50:04,VALID,1004.52,VALID,0,VALID,84.055,VALID,0,VALID,26.3128,VALID,289,VALID,1.22422,
2010-03-14, 01:51:04,VALID,1004.52,VALID,0,VALID,83.8643,VALID,0,VALID,26.2933,VALID,293,VALID,1.01641,
2010-03-14, 01:52:04,VALID,1004.55,VALID,0,VALID,83.9482,VALID,0,VALID,26.3323,VALID,263,VALID,0.708203,
2010-03-14, 01:53:04,VALID,1004.57,VALID,0,VALID,83.9863,VALID,0,VALID,26.3323,VALID,317,VALID,0.523438,
2010-03-14, 01:54:04,VALID,1004.58,VALID,0,VALID,84.1084,VALID,0,VALID,26.3128,VALID,309,VALID,0.654688,
2010-03-14, 01:55:04,VALID,1004.57,VALID,0,VALID,84.0245,VALID,0,VALID,26.2933,VALID,277,VALID,1.1293,
2010-03-14, 01:56:04,VALID,1004.56,VALID,0,VALID,84.0626,VALID,0,VALID,26.2739,VALID,298,VALID,1.15781,
2010-03-14, 01:57:04,VALID,1004.57,VALID,0,VALID,84.0931,VALID,0,VALID,26.3148,VALID,284,VALID,0.921094,
2010-03-14, 01:58:04,VALID,1004.58,VALID,0,VALID,84.1313,VALID,0,VALID,26.2739,VALID,261,VALID,0.396094,
2010-03-14, 01:59:04,VALID,1004.58,VALID,0,VALID,84.261,VALID,0,VALID,26.2739,VALID,314,VALID,0.439063,
2010-03-14, 02:00:04,VALID,1004.56,VALID,0,VALID,84.2305,VALID,0.100563,VALID,26.2524,VALID,307,VALID,1.30273,
2010-03-14, 02:01:04,VALID,1004.6,VALID,0,VALID,84.2686,VALID,0.100563,VALID,26.2524,VALID,273,VALID,0.657812,
2010-03-14, 02:02:04,VALID,1004.59,VALID,0,VALID,84.3144,VALID,0,VALID,26.2524,VALID,298,VALID,0.657031,
2010-03-14, 02:03:04,VALID,1004.6,VALID,0,VALID,84.3449,VALID,0,VALID,26.2524,VALID,273,VALID,1.07305,
2010-03-14, 02:04:04,VALID,1004.59,VALID,0,VALID,84.3678,VALID,0.100563,VALID,26.2719,VALID,269,VALID,1.06289,
2010-03-14, 02:05:04,VALID,1004.6,VALID,0,VALID,84.2915,VALID,0.100563,VALID,26.2524,VALID,303,VALID,1.33906,
2010-03-14, 02:06:04,VALID,1004.63,VALID,0,VALID,84.2534,VALID,0,VALID,26.2524,VALID,270,VALID,0.867188,
2010-03-14, 02:07:04,VALID,1004.65,VALID,0,VALID,84.0931,VALID,0.100563,VALID,26.3108,VALID,358,VALID,0.704687,
2010-03-14, 02:08:04,VALID,1004.65,VALID,0,VALID,84.2534,VALID,0.100563,VALID,26.3108,VALID,322,VALID,0.190234,
2010-03-14, 02:09:04,VALID,1004.65,VALID,0,VALID,84.1466,VALID,0.100563,VALID,26.3108,VALID,280,VALID,0.722656,
2010-03-14, 02:10:04,VALID,1004.66,VALID,0,VALID,84.2228,VALID,0,VALID,26.3303,VALID,329,VALID,0.579687,
2010-03-14, 02:11:04,VALID,1004.6,VALID,0,VALID,84.1847,VALID,0.100563,VALID,26.3323,VALID,295,VALID,0.724219,
2010-03-14, 02:12:04,VALID,1004.62,VALID,0,VALID,84.3449,VALID,0,VALID,26.2913,VALID,273,VALID,0.764844,
2010-03-14, 02:13:04,VALID,1004.61,VALID,0,VALID,84.261,VALID,0,VALID,26.2913,VALID,306,VALID,0.471094,
2010-03-14, 02:14:04,VALID,1004.59,VALID,0,VALID,84.383,VALID,0,VALID,26.2719,VALID,294,VALID,1.01484,
2010-03-14, 02:15:04,VALID,1004.57,VALID,0,VALID,84.3678,VALID,0.100563,VALID,26.2524,VALID,301,VALID,0.751562,
2010-03-14, 02:16:04,VALID,1004.57,VALID,0,VALID,84.4212,VALID,0,VALID,26.2524,VALID,279,VALID,1.13359,
2010-03-14, 02:17:04,VALID,1004.59,VALID,0,VALID,84.3296,VALID,0.100563,VALID,26.2524,VALID,288,VALID,1.7,
2010-03-14, 02:18:04,VALID,1004.58,VALID,0,VALID,84.4136,VALID,0,VALID,26.2739,VALID,315,VALID,0.257031,
2010-03-14, 02:19:04,VALID,1004.54,VALID,0,VALID,84.5814,VALID,0.100563,VALID,26.2719,VALID,271,VALID,0.632422,
2010-03-14, 02:20:04,VALID,1004.51,VALID,0,VALID,84.5509,VALID,0.100563,VALID,26.2719,VALID,288,VALID,0.589063,
2010-03-14, 02:21:04,VALID,1004.49,VALID,0,VALID,84.5433,VALID,0.100563,VALID,26.2309,VALID,289,VALID,0.802734,
2010-03-14, 02:22:04,VALID,1004.46,VALID,0,VALID,84.5738,VALID,0,VALID,26.2329,VALID,290,VALID,0.803516,
2010-03-14, 02:23:04,VALID,1004.46,VALID,0,VALID,84.5738,VALID,0,VALID,26.2329,VALID,244,VALID,0.374219,
2010-03-14, 02:24:04,VALID,1004.48,VALID,0,VALID,84.6272,VALID,0.100563,VALID,26.2524,VALID,253,VALID,0.635938,
2010-03-14, 02:25:04,VALID,1004.49,VALID,0,VALID,84.7111,VALID,0.100563,VALID,26.2329,VALID,272,VALID,0.522656,
2010-03-14, 02:26:04,VALID,1004.48,VALID,0,VALID,84.7492,VALID,0.100563,VALID,26.2544,VALID,270,VALID,0.580469,
2010-03-14, 02:27:04,VALID,1004.49,VALID,0,VALID,84.8484,VALID,0.100563,VALID,26.2134,VALID,262,VALID,0.245312,
2010-03-14, 02:28:04,VALID,1004.49,VALID,0,VALID,85.001,VALID,0.100563,VALID,26.2134,VALID,205,VALID,0.568359,
2010-03-14, 02:29:04,VALID,1004.49,VALID,0,VALID,84.8637,VALID,0,VALID,26.1745,VALID,304,VALID,1.52422,
2010-03-14, 02:30:04,VALID,1004.5,VALID,0,VALID,84.9247,VALID,0,VALID,26.194,VALID,280,VALID,0.882813,
2010-03-14, 02:31:04,VALID,1004.47,VALID,0,VALID,84.8179,VALID,0.100563,VALID,26.2134,VALID,288,VALID,0.884375,
2010-03-14, 02:32:04,VALID,1004.44,VALID,0,VALID,84.734,VALID,0.100563,VALID,26.2134,VALID,279,VALID,1.07187,
2010-03-14, 02:33:04,VALID,1004.43,VALID,0,VALID,84.7874,VALID,0,VALID,26.2329,VALID,313,VALID,0.388281,
2010-03-14, 02:34:04,VALID,1004.43,VALID,0,VALID,84.8408,VALID,0,VALID,26.2544,VALID,312,VALID,0.391797,
2010-03-14, 02:35:04,VALID,1004.42,VALID,0,VALID,84.8713,VALID,0,VALID,26.2134,VALID,296,VALID,0.714063,
2010-03-14, 02:36:04,VALID,1004.43,VALID,0,VALID,84.8713,VALID,0.100563,VALID,26.2349,VALID,296,VALID,0.521484,
2010-03-14, 02:37:04,VALID,1004.44,VALID,0,VALID,84.9934,VALID,0,VALID,26.2134,VALID,312,VALID,0.326172,
2010-03-14, 02:38:04,VALID,1004.43,VALID,0,VALID,85.0773,VALID,0,VALID,26.2329,VALID,272,VALID,0.0851562,
2010-03-14, 02:39:04,VALID,1004.46,VALID,0,VALID,84.9781,VALID,0,VALID,26.2329,VALID,299,VALID,0.714844,
2010-03-14, 02:40:04,VALID,1004.46,VALID,0,VALID,85.1002,VALID,0,VALID,26.2134,VALID,298,VALID,0.489453,
2010-03-14, 02:41:04,VALID,1004.44,VALID,0,VALID,85.2833,VALID,0.100563,VALID,26.2134,VALID,297,VALID,0.00898437,
2010-03-14, 02:42:04,VALID,1004.42,VALID,0,VALID,85.2756,VALID,0,VALID,26.194,VALID,247,VALID,0.241016,
2010-03-14, 02:43:04,VALID,1004.43,VALID,0,VALID,85.4129,VALID,0.100563,VALID,26.1745,VALID,298,VALID,0.693359,
2010-03-14, 02:44:04,VALID,1004.46,VALID,0,VALID,85.474,VALID,0,VALID,26.1745,VALID,289,VALID,0.674219,
2010-03-14, 02:45:04,VALID,1004.43,VALID,0,VALID,85.4435,VALID,0,VALID,26.157,VALID,301,VALID,0.638672,
2010-03-14, 02:46:04,VALID,1004.41,VALID,0,VALID,85.3595,VALID,0,VALID,26.157,VALID,287,VALID,1.36367,
2010-03-14, 02:47:04,VALID,1004.42,VALID,0,VALID,85.4129,VALID,0,VALID,26.1765,VALID,289,VALID,0.220313,
2010-03-14, 02:48:04,VALID,1004.4,VALID,0,VALID,85.3214,VALID,0,VALID,26.1784,VALID,292,VALID,0.924609,
2010-03-14, 02:49:04,VALID,1004.33,VALID,0,VALID,85.3977,VALID,0,VALID,26.157,VALID,282,VALID,0.269922,
2010-03-14, 02:50:04,VALID,1004.37,VALID,0,VALID,85.4816,VALID,0,VALID,26.157,VALID,352,VALID,0.709766,
2010-03-14, 02:51:04,VALID,1004.33,VALID,0,VALID,85.5198,VALID,0,VALID,26.159,VALID,308,VALID,0.576172,
2010-03-14, 02:52:04,VALID,1004.31,VALID,0,VALID,85.4969,VALID,0,VALID,26.1375,VALID,346,VALID,0.370703,
2010-03-14, 02:53:04,VALID,1004.33,VALID,0,VALID,85.6342,VALID,0,VALID,26.118,VALID,321,VALID,0.681641,
2010-03-14, 02:54:04,VALID,1004.31,VALID,0,VALID,85.6113,VALID,0,VALID,26.118,VALID,307,VALID,0.249609,
2010-03-14, 02:55:04,VALID,1004.32,VALID,0,VALID,85.6876,VALID,0,VALID,26.1395,VALID,293,VALID,0.244922,
2010-03-14, 02:56:04,VALID,1004.32,VALID,0,VALID,85.7791,VALID,0,VALID,26.118,VALID,276,VALID,0.0078125,
2010-03-14, 02:57:04,VALID,1004.33,VALID,0,VALID,85.8554,VALID,0,VALID,26.12,VALID,274,VALID,0,
2010-03-14, 02:58:04,VALID,1004.34,VALID,0,VALID,85.8859,VALID,0,VALID,26.0791,VALID,274,VALID,0.0414063,
2010-03-14, 02:59:04,VALID,1004.32,VALID,0,VALID,85.8402,VALID,0,VALID,26.0791,VALID,291,VALID,0.952344,
2010-03-14, 03:00:04,VALID,1004.31,VALID,0,VALID,86.008,VALID,0,VALID,26.0985,VALID,274,VALID,0.455859,
2010-03-14, 03:01:04,VALID,1004.33,VALID,0,VALID,85.9927,VALID,0,VALID,26.0771,VALID,334,VALID,0.878125,
2010-03-14, 03:02:04,VALID,1004.28,VALID,0,VALID,85.8707,VALID,0,VALID,26.0771,VALID,289,VALID,0.829687,
2010-03-14, 03:03:04,VALID,1004.3,VALID,0,VALID,85.9012,VALID,0,VALID,26.0771,VALID,263,VALID,0.204688,
2010-03-14, 03:04:04,VALID,1004.24,VALID,0,VALID,85.7791,VALID,0,VALID,26.0966,VALID,305,VALID,0.342578,
2010-03-14, 03:05:04,VALID,1004.2,VALID,0,VALID,85.8707,VALID,0,VALID,26.0966,VALID,322,VALID,0.437891,
2010-03-14, 03:06:04,VALID,1004.16,VALID,0,VALID,85.8859,VALID,0.100563,VALID,26.0966,VALID,267,VALID,0.269141,
2010-03-14, 03:07:04,VALID,1004.12,VALID,0,VALID,85.9927,VALID,0,VALID,26.0751,VALID,267,VALID,0.215234,
2010-03-14, 03:08:04,VALID,1004.13,VALID,0,VALID,85.8402,VALID,0,VALID,26.0966,VALID,295,VALID,1.06406,
2010-03-14, 03:09:04,VALID,1004.13,VALID,0,VALID,85.7028,VALID,0.100563,VALID,26.116,VALID,285,VALID,1.33828,
2010-03-14, 03:10:04,VALID,1004.12,VALID,0,VALID,85.6266,VALID,0.100563,VALID,26.1355,VALID,297,VALID,1.53242,
2010-03-14, 03:11:04,VALID,1004.12,VALID,0,VALID,85.5655,VALID,0,VALID,26.155,VALID,277,VALID,0.779688,
2010-03-14, 03:12:04,VALID,1004.08,VALID,0,VALID,85.5198,VALID,0,VALID,26.1335,VALID,289,VALID,1.12148,
2010-03-14, 03:13:04,VALID,1004.09,VALID,0,VALID,85.474,VALID,0,VALID,26.194,VALID,282,VALID,0.95,
2010-03-14, 03:14:04,VALID,1004.06,VALID,0,VALID,85.4816,VALID,0.100563,VALID,26.194,VALID,281,VALID,0.89375,
2010-03-14, 03:15:04,VALID,1004,VALID,0,VALID,85.4892,VALID,0,VALID,26.1745,VALID,304,VALID,1.37344,
2010-03-14, 03:16:04,VALID,1003.94,VALID,0,VALID,85.3748,VALID,0,VALID,26.1959,VALID,290,VALID,0.963672,
2010-03-14, 03:17:04,VALID,1003.92,VALID,0,VALID,85.3138,VALID,0,VALID,26.2564,VALID,291,VALID,1.13555,
2010-03-14, 03:18:04,VALID,1003.93,VALID,0,VALID,85.2756,VALID,0,VALID,26.2544,VALID,291,VALID,0.765625,
2010-03-14, 03:19:04,VALID,1003.88,VALID,0,VALID,85.1459,VALID,0,VALID,26.2739,VALID,334,VALID,0.434766,
2010-03-14, 03:20:04,VALID,1003.86,VALID,0,VALID,85.0925,VALID,0,VALID,26.2933,VALID,280,VALID,0.962109,
2010-03-14, 03:21:04,VALID,1003.84,VALID,0,VALID,84.9247,VALID,0,VALID,26.3323,VALID,329,VALID,1.32227,
2010-03-14, 03:22:04,VALID,1003.83,VALID,0,VALID,84.8103,VALID,0,VALID,26.3108,VALID,303,VALID,1.40703,
2010-03-14, 03:23:04,VALID,1003.84,VALID,0,VALID,84.8637,VALID,0,VALID,26.3518,VALID,274,VALID,0.583984,
2010-03-14, 03:24:04,VALID,1003.85,VALID,0,VALID,84.9552,VALID,0,VALID,26.3518,VALID,213,VALID,0.505859,
2010-03-14, 03:25:04,VALID,1003.81,VALID,0,VALID,84.8408,VALID,0,VALID,26.3343,VALID,289,VALID,1.7625,
2010-03-14, 03:26:04,VALID,1003.82,VALID,0,VALID,84.8255,VALID,0,VALID,26.3323,VALID,294,VALID,1.33906,
2010-03-14, 03:27:04,VALID,1003.81,VALID,0,VALID,84.383,VALID,0,VALID,26.3713,VALID,299,VALID,2.61289,
2010-03-14, 03:28:04,VALID,1003.79,VALID,0,VALID,84.0779,VALID,0,VALID,26.4297,VALID,339,VALID,1.12305,
2010-03-14, 03:29:04,VALID,1003.75,VALID,0,VALID,84.0931,VALID,0,VALID,26.4472,VALID,314,VALID,1.29648,
2010-03-14, 03:30:04,VALID,1003.78,VALID,0,VALID,84.1313,VALID,0,VALID,26.4492,VALID,275,VALID,0.716797,
2010-03-14, 03:31:04,VALID,1003.75,VALID,0,VALID,84.2305,VALID,0,VALID,26.4492,VALID,319,VALID,0.535937,
2010-03-14, 03:32:04,VALID,1003.71,VALID,0,VALID,84.2076,VALID,0,VALID,26.4492,VALID,326,VALID,0.851172,
2010-03-14, 03:33:04,VALID,1003.71,VALID,0,VALID,84.2305,VALID,0,VALID,26.4297,VALID,309,VALID,0.891016,
2010-03-14, 03:34:04,VALID,1003.67,VALID,0,VALID,84.2228,VALID,0,VALID,26.4297,VALID,297,VALID,0.635156,
2010-03-14, 03:35:04,VALID,1003.66,VALID,0,VALID,84.1542,VALID,0,VALID,26.4297,VALID,314,VALID,1.73789,
2010-03-14, 03:36:04,VALID,1003.64,VALID,0,VALID,84.2152,VALID,0,VALID,26.4102,VALID,301,VALID,1.13984,
2010-03-14, 03:37:04,VALID,1003.67,VALID,0,VALID,84.2381,VALID,0,VALID,26.4512,VALID,292,VALID,1.25859,
2010-03-14, 03:38:04,VALID,1003.63,VALID,0,VALID,84.1542,VALID,0,VALID,26.4492,VALID,289,VALID,1.61523,
2010-03-14, 03:39:04,VALID,1003.64,VALID,0,VALID,84.0703,VALID,0,VALID,26.4492,VALID,307,VALID,0.247656,
2010-03-14, 03:40:04,VALID,1003.64,VALID,0,VALID,83.9406,VALID,0,VALID,26.4687,VALID,304,VALID,1.31016,
2010-03-14, 03:41:04,VALID,1003.62,VALID,0,VALID,83.9711,VALID,0,VALID,26.4687,VALID,2,VALID,1.48789,
2010-03-14, 03:42:04,VALID,1003.66,VALID,0,VALID,83.849,VALID,0,VALID,26.4881,VALID,315,VALID,0.683203,